Location: New Canada
(47.1017°N, 68.5042°W)
Time: 06:38:26
(UTC+00:00)

AO-91 - Visible Passes

Search period start: 21 May 2024 00:00
Search period end: 31 May 2024 00:00
Orbit: 441 x 737 km, 97.6° (Epoch: 20 May)

Date Brightness Start Highest point End Pass type
(mag) Time Alt. Az. Time Alt. Az. Time Alt. Az.
21 May ? 01:42:15 10° NNE 01:46:14 37° E 01:48:51 20° SSE visible
21 May ? 03:18:08 10° NNW 03:21:36 25° WNW 03:25:17 10° WSW visible
22 May ? 01:49:49 10° NNE 01:53:57 45° E 01:56:45 20° SSE visible
22 May ? 03:25:57 10° NNW 03:29:14 22° WNW 03:32:43 10° WSW visible
23 May ? 01:57:22 10° NNE 02:01:38 54° E 02:04:39 20° S visible
23 May ? 03:33:47 10° NNW 03:36:50 19° WNW 03:40:02 10° WSW visible
24 May ? 02:04:54 10° NNE 02:09:15 65° ESE 02:12:28 20° S visible
24 May ? 03:41:36 10° NNW 03:44:22 17° WNW 03:47:15 10° WSW visible
25 May ? 02:12:25 10° NNE 02:16:51 78° ESE 02:20:16 19° S visible
25 May ? 03:49:27 10° NNW 03:51:52 15° WNW 03:54:22 10° W visible
26 May ? 02:19:56 10° NNE 02:24:24 89° WNW 02:28:02 17° SSW visible
26 May ? 03:57:22 10° NW 03:59:19 13° WNW 04:01:19 10° W visible
27 May ? 00:53:38 10° ENE 00:56:01 14° E 00:58:28 10° ESE visible
27 May ? 02:27:24 10° N 02:31:54 76° WNW 02:35:43 16° SSW visible
27 May ? 04:05:28 10° NW 04:06:43 11° WNW 04:08:00 10° WNW visible
28 May ? 01:00:38 10° NE 01:03:35 17° E 01:06:37 10° SE visible
28 May ? 02:34:53 10° N 02:39:22 64° WNW 02:43:24 14° SSW visible
29 May ? 01:07:42 10° NE 01:11:05 20° E 01:14:31 10° SE visible
29 May ? 02:42:19 10° N 02:46:47 55° WNW 02:51:02 13° SSW visible
30 May ? 01:14:50 10° NE 01:18:33 23° E 01:22:06 11° SE visible
30 May ? 02:49:45 10° N 02:54:10 47° WNW 02:58:36 11° SW visible
